DECAYED

CZ-6A DEB, 54556 (Decayed)

Orbit data source: Space-Track

CZ-6A DEB, 54556 was space debris in SSO originally from a launch on Fri, 11 Nov 2022 UTC launched from the Taiyaun Space Center, China (TSC). Debris objects in space refer to the collection of defunct objects orbiting the Earth. Examples of debris include non-operational satellites, rocket bodies, and fragments generated from explosions, collisions, or faulty payload assembly.

Not visible in the next 10 days
Identifier
54556, 2022-151LG
Orbit
Decayed
Country
Flag of CNCN / PRC
Related business
Manufacturer
SAST
Mission
Decayed spacecraft
Bus & Motor
Unknown
Mass
Unknown
Launch date (UTC)
2022-11-11 (3 years ago)
Launch vehicle
Unknown
Launch site
Taiyaun Space Center, China (TSC)
Object type
Payload
Rocket body
Debris
Shape & HBR
Unknown shape, 0.1 m
Radar Cross Section
Small (<0.1 m²)

Expand to show TLE details & history
Last TLE update: 4 months ago

TLE from 4 months ago
0 CZ-6A DEB
1 54556U 22151LG  25219.96475706  .02214561  00000-0  12786-1 0  9995
2 54556  98.6479 299.1424 0015990 295.2062  64.7541 15.75406241146161
Epoch: 2025-08-07T23:09Z
TLE epoch observation values (Epoch: 2025-08-07T23:09:15.009Z)
Latitude
-0.00005°
Longitude
-4.89174°
Altitude
342.03 km
Speed
7.706 km/s
True Right ascension
19h 56m 34s
True Declination
0° 00' 00"
Sunlit
Object was in full shadow at epoch
Visualization orbit readout
Latitude
Unknown
Longitude
Unknown
Altitude
Unknown
Speed
Unknown
Apparent Right ascension
Unknown
Apparent Declination
Unknown
Sunlit
N/A
Visualization observer readout
Local Sidereal Time
13:33:07
Azimuth
Unknown
Elevation
Unknown
Doppler factor
Unknown
Orbital elements
Apogee altitude
351.17 km
Perigee altitude
329.684 km
Semi-major axis
6,718.564 km
Eccentricity
0.0016
Inclination
98.6479°
RAAN
299.1424°
Arg. of periapsis
295.2062°
True anomaly
64.91997°
Mean anomaly
64.7541°
Eccentric anomaly
64.83702°
Mean motion
3.9412 °/min
Orbital period
91.34 mins
BSTAR
0.012786
Loading maneuver chart data...
Computing Atmospheric mass density...
Loading historical data...
Loading historical data...
Loading historical data...
Loading historical data...
Loading historical data...
Loading historical data...
Loading historical data...

Documentation

Showing up to 5 results
|